Flag for Germany Weather past 2 weeks in Weimar, Thuringia, Germany

Now
63 °F

Sunny.


Feels Like: 63 °F
Forecast: 55 / 79 °F
Wind: 2 mph from Northwest

Location: Erfurt-Bindersleben

Current Time: Jun 30, 2015 at 8:15:03 AM

Latest Report: Jun 30, 2015 at 7:50 AM


Visibility: 10 mi

Pressure: 30.21 "Hg

Humidity: 77%

Dew point: 55 °F

Location of WeimarLocation

Historic Weather in Weimar — Graph

°F

Weimar temperature yesterday

Maximum temperature yesterday: 79 °F (at 4:50 PM)
Minimum temperature yesterday: 59 °F (at 2:50 AM)
Average temperature yesterday: 68 °F

Past Weeks' High & Low Weather Summary

 TemperatureHumidityPressure
High79 °F (Jun 29, 4:50 PM)100% (Jun 18, 6:50 AM)30.27 "Hg (Jun 18, 6:50 AM)
Low43 °F (Jun 17, 5:20 AM)34% (Jun 17, 2:50 PM)29.65 "Hg (Jun 23, 12:50 AM)
Average58 °F71%30.06 "Hg
* Reported Jun 15 7:20 AM — Jun 30 7:20 AM, Weimar, Weather by CustomWeather, © 2015

Note: Actual official high and low records may vary slightly from our data, if they occured in-between our weather recording intervals... More about our weather records

Advertising

Weimar weather history for previous 24 hours

 ConditionsComfort  
Time TempWeatherWind HumidityBarometerVisibility
7:20 AM
Tue, Jun 30
59 °FSunny.3 mph82%30.18 "Hg10 mi
6:50 AM57 °FSunny.3 mph88%30.18 "Hg10 mi
6:20 AM55 °FSunny.5 mph88%30.18 "Hg10 mi
5:50 AM55 °FClear.3 mph88%30.18 "Hg10 mi
5:20 AM57 °FClear.3 mph82%30.18 "Hg10 mi
4:50 AM57 °FPassing clouds.5 mph82%30.18 "HgN/A
4:20 AM57 °FPassing clouds.6 mph88%30.18 "HgN/A
3:50 AM57 °FClear.6 mph88%30.18 "Hg10 mi
3:20 AM59 °FClear.3 mph82%30.18 "Hg10 mi
2:50 AM61 °FClear.5 mph77%30.18 "Hg10 mi
2:20 AM61 °FClear.6 mph77%30.18 "Hg10 mi
1:50 AM61 °FClear.6 mph77%30.18 "Hg10 mi
1:20 AM63 °FClear.6 mph73%30.18 "Hg10 mi
12:50 AM63 °FClear.7 mph73%30.18 "Hg10 mi
12:20 AM64 °FClear.5 mph68%30.18 "Hg10 mi
11:20 PM
Mon, Jun 29
66 °FClear.5 mph68%30.18 "Hg10 mi
10:50 PM68 °FClear.5 mph64%30.18 "Hg10 mi
10:20 PM70 °FSunny.6 mph60%30.18 "Hg10 mi
9:50 PM70 °FSunny.7 mph60%30.15 "Hg10 mi
9:20 PM72 °FSunny.8 mph57%30.15 "Hg10 mi
8:50 PM72 °FSunny.7 mph57%30.15 "Hg10 mi
8:20 PM73 °FSunny.9 mph50%30.15 "Hg10 mi
7:50 PM75 °FSunny.7 mph47%30.12 "Hg10 mi
7:20 PM77 °FSunny.8 mph44%30.12 "Hg10 mi
6:50 PM77 °FSunny.7 mph42%30.12 "Hg10 mi
6:20 PM79 °FSunny.9 mph39%30.12 "Hg10 mi
5:50 PM77 °FSunny.9 mph42%30.12 "Hg10 mi
5:20 PM77 °FSunny.8 mph42%30.12 "Hg10 mi
4:50 PM79 °FSunny.7 mph39%30.12 "Hg10 mi
4:20 PM77 °FPassing clouds.7 mph39%30.12 "HgN/A
3:50 PM75 °FSunny.10 mph44%30.12 "Hg10 mi
3:20 PM75 °FSunny.10 mph41%30.12 "Hg10 mi
2:50 PM77 °FSunny.8 mph42%30.12 "Hg10 mi
2:20 PM77 °FSunny.8 mph42%30.12 "Hg10 mi
1:50 PM77 °FSunny.9 mph39%30.12 "Hg10 mi
1:20 PM77 °FSunny.7 mph36%30.15 "Hg10 mi
12:50 PM75 °FSunny.9 mph41%30.15 "Hg10 mi
12:20 PM75 °FSunny.10 mph44%30.15 "Hg10 mi
11:50 AM73 °FSunny.7 mph50%30.15 "Hg10 mi
11:20 AM73 °FSunny.9 mph44%30.15 "Hg10 mi
10:50 AM72 °FSunny.8 mph47%30.15 "Hg10 mi
10:20 AM70 °FSunny.7 mph50%30.15 "Hg10 mi
9:50 AM68 °FSunny.7 mph60%30.15 "Hg10 mi
9:20 AM66 °FSunny.5 mph56%30.15 "Hg10 mi
8:50 AM64 °FSunny.6 mph64%30.15 "Hg10 mi
8:20 AM63 °FSunny.3 mph68%30.15 "Hg10 mi
Weather by CustomWeather, © 2015

See weather overviewHow to use our weather pages